Showing default

KANOPUS-V 3, 43180

Orbit data source: Space-Track

KANOPUS-V 3, 43180 is a payload satellite owned by VNIIEM (CIS) in SSO that was launched on Thu, 01 Feb 2018 UTC via a SOYUZ-2-1A launch vehicle from the Vostochny Cosmodrome (VOSTO). Payload-class satellites include a variety of spacecraft equipped with specific instruments for various scientific and technological missions. These include communications satellites like Starlink; space stations such as the ISS; scientific satellites like the Hubble; Earth observation satellites from companies like Planet Labs, Umbra, and HawkEye 360; GPS; miniature CubeSats for education and research; and military/defense satellites.

Loading next visibility...
Identifier
43180, 2018-014A
Orbit
SSO
Country
Flag of CISCIS
Related business
Manufacturer
VNIIEM
Mission
Operational Civil Imaging
Bus & Motor
KANOPUS, Unknown motor
Mass
490 kg wet, 490 kg dry
Launch date (UTC)
2018-02-01 (9 years ago)
Launch vehicle
SOYUZ-2-1A
Launch site
Vostochny Cosmodrome (VOSTO)
Object type
Payload
Rocket body
Debris
Shape & HBR
Box + 2 Pan, 3.0 m
Radar Cross Section
1.665 m², Large (>1 m²)

Expand to show TLE details & history
Last TLE update: 2 hours ago

TLE from 2 hours ago
0 KANOPUS-V 3
1 43180U 18014A   26254.88718067  .00001681  00000-0  75576-4 0  9994
2 43180  97.3476 158.5727 0001920  87.1229 273.0227 15.22477597477910
Epoch: 2026-09-11T21:17Z
TLE epoch observation values (Epoch: 2026-09-11T21:17:32.409Z)
Latitude
-0.00008°
Longitude
-151.71642°
Altitude
501.396 km
Speed
7.614 km/s
True Right ascension
10h 34m 17s
True Declination
0° 00' 00"
Sunlit
Object was in daylight at epoch
Visualization orbit readout
Latitude
Unknown
Longitude
Unknown
Altitude
Unknown
Speed
Unknown
Apparent Right ascension
Unknown
Apparent Declination
Unknown
Sunlit
N/A
Visualization observer readout
Local Sidereal Time
15:48:36
Azimuth
Unknown
Elevation
Unknown
Doppler factor
Unknown
Orbital elements
Apogee altitude
496.65 km
Perigee altitude
494.011 km
Semi-major axis
6,873.467 km
Eccentricity
0.00019
Inclination
97.3476°
RAAN
158.5727°
Arg. of periapsis
87.1229°
True anomaly
273.00073°
Mean anomaly
273.0227°
Eccentric anomaly
273.01171°
Mean motion
3.80872 °/min
Orbital period
94.52 mins
BSTAR
0.000075576
Loading maneuver chart data...
Computing Atmospheric mass density...
Loading historical data...
Loading historical data...
Loading historical data...
Loading historical data...
Loading historical data...
Loading historical data...
Loading historical data...

Documentation

Showing up to 5 results
|